Station Historical Data
Daily Summary for January 4, 2018 Units:  English    Metric   Both
« Previous Day
Next Day »
Daily Weekly Monthly Yearly Custom
  High: Low: Average:
Temperature: 18.2 °F 3.5 °F 13.3 °F
Dew Point: 13.9 °F -1.6 °F 7.6 °F
Humidity: 83% 69% 78%
Wind Speed: 12.0mph 0.0mph 4.9mph
Wind Gust: 20.0mph - -
Wind- - WNW
Pressure: 30.00 in 29.87 in -
Precipitation: 0.00 in    
Historical Graphs
 
 
Tabular Data for January 4, 2018
Time Temperature Dew Point Pressure Wind Wind Speed Wind Gust Humidity Rainfall Rate (Hourly)
00:09 18.2 °F 13.9 °F 30.00 in West 2.0 mph 7.0 mph 83% 0.00 in
00:14 18.0 °F 13.7 °F 30.00 in WNW 2.0 mph 5.0 mph 83% 0.00 in
00:19 17.9 °F 13.6 °F 30.00 in West 3.0 mph 5.0 mph 83% 0.00 in
00:24 17.8 °F 13.5 °F 29.99 in West 2.0 mph 5.0 mph 83% 0.00 in
00:29 17.7 °F 13.1 °F 30.00 in West 3.0 mph 6.0 mph 82% 0.00 in
00:34 17.7 °F 13.1 °F 30.00 in WSW 3.0 mph 4.0 mph 82% 0.00 in
00:44 17.6 °F 13.0 °F 30.00 in WSW 2.0 mph 5.0 mph 82% 0.00 in
00:49 17.5 °F 12.7 °F 30.00 in WSW 2.0 mph 5.0 mph 81% 0.00 in
00:54 17.5 °F 12.7 °F 30.00 in WSW 2.0 mph 4.0 mph 81% 0.00 in
01:04 17.4 °F 12.3 °F 30.00 in WSW 1.0 mph 4.0 mph 80% 0.00 in
01:09 17.3 °F 12.2 °F 30.00 in WSW 2.0 mph 3.0 mph 80% 0.00 in
01:14 17.3 °F 12.2 °F 29.99 in Calm   4.0 mph 80% 0.00 in
01:19 17.2 °F 12.1 °F 29.99 in WSW 2.0 mph 3.0 mph 80% 0.00 in
01:24 17.2 °F 11.8 °F 29.99 in WSW 2.0 mph 4.0 mph 79% 0.00 in
01:29 17.2 °F 11.8 °F 29.99 in WSW 2.0 mph 4.0 mph 79% 0.00 in
01:34 17.1 °F 11.7 °F 29.99 in WSW 2.0 mph 4.0 mph 79% 0.00 in
01:39 17.1 °F 11.7 °F 29.99 in WSW 1.0 mph 4.0 mph 79% 0.00 in
01:44 17.1 °F 11.7 °F 30.00 in SW 1.0 mph 3.0 mph 79% 0.00 in
01:49 17.1 °F 12.0 °F 30.00 in SW 1.0 mph 3.0 mph 80% 0.00 in
01:54 17.0 °F 11.9 °F 30.00 in SW 3.0 mph 5.0 mph 80% 0.00 in
01:59 16.9 °F 11.8 °F 30.00 in SW 2.0 mph 5.0 mph 80% 0.00 in
02:04 16.9 °F 11.8 °F 29.99 in WSW 4.0 mph 6.0 mph 80% 0.00 in
02:09 16.8 °F 11.7 °F 29.99 in WSW 3.0 mph 6.0 mph 80% 0.00 in
02:14 16.7 °F 11.3 °F 29.99 in WSW 3.0 mph 6.0 mph 79% 0.00 in
02:19 16.7 °F 11.3 °F 29.99 in WSW 3.0 mph 5.0 mph 79% 0.00 in
02:24 16.7 °F 11.0 °F 29.99 in WSW 2.0 mph 5.0 mph 78% 0.00 in
02:29 16.7 °F 11.0 °F 29.99 in WSW 2.0 mph 5.0 mph 78% 0.00 in
02:34 16.7 °F 11.3 °F 29.99 in Calm   4.0 mph 79% 0.00 in
02:39 16.6 °F 11.2 °F 29.99 in WSW 2.0 mph 4.0 mph 79% 0.00 in
02:44 16.6 °F 10.9 °F 29.98 in WSW 2.0 mph 5.0 mph 78% 0.00 in
02:49 16.5 °F 10.8 °F 29.98 in WSW 2.0 mph 5.0 mph 78% 0.00 in
02:54 16.5 °F 10.8 °F 29.98 in WSW 2.0 mph 6.0 mph 78% 0.00 in
02:59 16.5 °F 10.8 °F 29.98 in West 2.0 mph 6.0 mph 78% 0.00 in
03:04 16.5 °F 10.8 °F 29.97 in WSW 2.0 mph 4.0 mph 78% 0.00 in
03:09 16.4 °F 10.7 °F 29.97 in SW 2.0 mph 4.0 mph 78% 0.00 in
03:14 16.3 °F 10.6 °F 29.97 in WSW 2.0 mph 6.0 mph 78% 0.00 in
03:19 16.3 °F 10.6 °F 29.97 in West 2.0 mph 6.0 mph 78% 0.00 in
03:29 16.2 °F 10.3 °F 29.97 in West 2.0 mph 4.0 mph 77% 0.00 in
03:34 16.2 °F 10.3 °F 29.97 in WSW 1.0 mph 3.0 mph 77% 0.00 in
03:39 16.1 °F 10.2 °F 29.97 in WSW 2.0 mph 4.0 mph 77% 0.00 in
03:49 16.1 °F 10.2 °F 29.98 in Calm   3.0 mph 77% 0.00 in
03:54 16.1 °F 10.2 °F 29.98 in Calm   3.0 mph 77% 0.00 in
03:59 16.1 °F 10.2 °F 29.98 in West 1.0 mph 6.0 mph 77% 0.00 in
04:04 16.1 °F 10.2 °F 29.97 in WSW 2.0 mph 6.0 mph 77% 0.00 in
04:09 16.0 °F 10.1 °F 29.97 in West 2.0 mph 4.0 mph 77% 0.00 in
04:14 15.9 °F 10.3 °F 29.97 in West 1.0 mph 6.0 mph 78% 0.00 in
04:19 15.8 °F 10.2 °F 29.97 in West 2.0 mph 6.0 mph 78% 0.00 in
04:24 15.8 °F 10.2 °F 29.97 in WNW 3.0 mph 7.0 mph 78% 0.00 in
04:29 15.8 °F 10.4 °F 29.97 in WNW 3.0 mph 7.0 mph 79% 0.00 in
04:34 15.7 °F 10.3 °F 29.96 in West 2.0 mph 6.0 mph 79% 0.00 in
04:39 15.6 °F 10.5 °F 29.96 in West 2.0 mph 5.0 mph 80% 0.00 in
04:44 15.6 °F 10.5 °F 29.96 in West 2.0 mph 5.0 mph 80% 0.00 in
04:49 15.5 °F 10.4 °F 29.96 in West 1.0 mph 3.0 mph 80% 0.00 in
04:54 15.5 °F 10.4 °F 29.95 in WSW 2.0 mph 4.0 mph 80% 0.00 in
04:59 15.5 °F 10.4 °F 29.95 in West 1.0 mph 4.0 mph 80% 0.00 in
05:04 15.5 °F 10.4 °F 29.95 in West 2.0 mph 4.0 mph 80% 0.00 in
05:09 15.5 °F 10.7 °F 29.95 in WNW 1.0 mph 5.0 mph 81% 0.00 in
05:14 15.5 °F 10.7 °F 29.95 in NW 1.0 mph 5.0 mph 81% 0.00 in
05:19 15.5 °F 10.7 °F 29.95 in NW 1.0 mph 3.0 mph 81% 0.00 in
05:29 15.6 °F 10.8 °F 29.95 in West 1.0 mph 3.0 mph 81% 0.00 in
05:34 15.5 °F 10.7 °F 29.95 in Calm   2.0 mph 81% 0.00 in
05:39 15.5 °F 10.7 °F 29.95 in West 1.0 mph 4.0 mph 81% 0.00 in
05:49 15.5 °F 10.7 °F 29.94 in West 1.0 mph 3.0 mph 81% 0.00 in
05:59 15.5 °F 10.7 °F 29.94 in West 1.0 mph 3.0 mph 81% 0.00 in
06:04 15.5 °F 10.7 °F 29.94 in WNW 1.0 mph 6.0 mph 81% 0.00 in
06:09 15.5 °F 10.7 °F 29.95 in West 2.0 mph 4.0 mph 81% 0.00 in
06:14 15.5 °F 10.7 °F 29.95 in West 2.0 mph 4.0 mph 81% 0.00 in
06:19 15.5 °F 10.7 °F 29.94 in West 2.0 mph 6.0 mph 81% 0.00 in
06:24 15.5 °F 10.7 °F 29.94 in West 2.0 mph 6.0 mph 81% 0.00 in
06:29 15.5 °F 10.7 °F 29.95 in West 2.0 mph 5.0 mph 81% 0.00 in
06:34 15.5 °F 10.7 °F 29.95 in West 1.0 mph 4.0 mph 81% 0.00 in
06:39 15.5 °F 10.7 °F 29.95 in West 2.0 mph 4.0 mph 81% 0.00 in
06:44 15.5 °F 10.7 °F 29.95 in WNW 2.0 mph 7.0 mph 81% 0.00 in
06:49 15.6 °F 10.8 °F 29.95 in WNW 3.0 mph 7.0 mph 81% 0.00 in
06:54 15.6 °F 10.5 °F 29.95 in WNW 2.0 mph 7.0 mph 80% 0.00 in
06:59 15.5 °F 10.4 °F 29.95 in West 2.0 mph 8.0 mph 80% 0.00 in
07:04 15.5 °F 10.4 °F 29.94 in WNW 3.0 mph 8.0 mph 80% 0.00 in
07:09 15.4 °F 10.3 °F 29.95 in WNW 3.0 mph 6.0 mph 80% 0.00 in
07:14 15.3 °F 10.2 °F 29.95 in WNW 2.0 mph 5.0 mph 80% 0.00 in
07:24 15.1 °F 10.0 °F 29.94 in WNW 3.0 mph 7.0 mph 80% 0.00 in
07:29 14.9 °F 9.8 °F 29.94 in WNW 4.0 mph 7.0 mph 80% 0.00 in
07:34 14.8 °F 10.0 °F 29.94 in WNW 4.0 mph 9.0 mph 81% 0.00 in
07:39 14.5 °F 9.5 °F 29.94 in WNW 2.0 mph 9.0 mph 80% 0.00 in
07:44 14.3 °F 9.5 °F 29.94 in WNW 4.0 mph 9.0 mph 81% 0.00 in
07:49 14.2 °F 9.4 °F 29.93 in NW 4.0 mph 8.0 mph 81% 0.00 in
07:54 14.2 °F 9.4 °F 29.93 in WNW 5.0 mph 8.0 mph 81% 0.00 in
08:04 14.0 °F 9.5 °F 29.92 in WNW 4.0 mph 9.0 mph 82% 0.00 in
08:09 14.0 °F 9.5 °F 29.92 in NW 4.0 mph 7.0 mph 82% 0.00 in
08:14 14.0 °F 9.5 °F 29.92 in WNW 4.0 mph 7.0 mph 82% 0.00 in
08:19 14.0 °F 9.5 °F 29.91 in NW 4.0 mph 8.0 mph 82% 0.00 in
08:24 14.0 °F 9.5 °F 29.91 in WNW 4.0 mph 8.0 mph 82% 0.00 in
08:29 14.2 °F 9.7 °F 29.91 in NW 4.0 mph 9.0 mph 82% 0.00 in
08:34 14.4 °F 9.9 °F 29.91 in NW 3.0 mph 9.0 mph 82% 0.00 in
08:39 14.6 °F 10.1 °F 29.91 in NW 8.0 mph 9.0 mph 82% 0.00 in
08:44 14.5 °F 10.0 °F 29.91 in NW 5.0 mph 11.0 mph 82% 0.00 in
08:49 14.5 °F 9.7 °F 29.90 in NW 2.0 mph 7.0 mph 81% 0.00 in
08:54 14.5 °F 9.7 °F 29.90 in NW 5.0 mph 9.0 mph 81% 0.00 in
08:59 14.5 °F 9.5 °F 29.90 in WNW 5.0 mph 9.0 mph 80% 0.00 in
09:04 14.7 °F 9.6 °F 29.89 in NW 5.0 mph 11.0 mph 80% 0.00 in
09:09 14.8 °F 9.5 °F 29.89 in NW 5.0 mph 11.0 mph 79% 0.00 in
09:14 15.2 °F 9.9 °F 29.89 in NW 4.0 mph 9.0 mph 79% 0.00 in
09:19 15.7 °F 9.8 °F 29.89 in NW 4.0 mph 14.0 mph 77% 0.00 in
09:24 16.2 °F 10.0 °F 29.89 in NNW 5.0 mph 13.0 mph 76% 0.00 in
09:29 16.5 °F 9.7 °F 29.89 in WNW 5.0 mph 12.0 mph 74% 0.00 in
09:34 16.7 °F 9.5 °F 29.89 in NW 5.0 mph 15.0 mph 73% 0.00 in
09:39 16.9 °F 9.1 °F 29.90 in North 4.0 mph 14.0 mph 71% 0.00 in
09:44 17.1 °F 9.0 °F 29.90 in NNW 6.0 mph 15.0 mph 70% 0.00 in
09:49 17.0 °F 8.6 °F 29.90 in NNW 7.0 mph 15.0 mph 69% 0.00 in
09:54 17.1 °F 8.7 °F 29.91 in NW 6.0 mph 15.0 mph 69% 0.00 in
09:59 17.1 °F 8.7 °F 29.91 in NW 7.0 mph 14.0 mph 69% 0.00 in
10:04 17.1 °F 8.7 °F 29.91 in WNW 9.0 mph 15.0 mph 69% 0.00 in
10:09 17.2 °F 8.8 °F 29.91 in NW 7.0 mph 15.0 mph 69% 0.00 in
10:14 17.4 °F 9.3 °F 29.91 in NNW 7.0 mph 14.0 mph 70% 0.00 in
10:19 17.6 °F 9.5 °F 29.91 in NW 6.0 mph 9.0 mph 70% 0.00 in
10:24 17.5 °F 9.4 °F 29.92 in NW 5.0 mph 12.0 mph 70% 0.00 in
10:30 17.5 °F 9.1 °F 29.92 in NW 6.0 mph 13.0 mph 69% 0.00 in
10:39 17.1 °F 9.0 °F 29.92 in NW 7.0 mph 11.0 mph 70% 0.00 in
10:44 17.9 °F 9.8 °F 29.92 in North 5.0 mph 13.0 mph 70% 0.00 in
10:49 17.8 °F 9.7 °F 29.93 in NW 6.0 mph 14.0 mph 70% 0.00 in
10:54 17.3 °F 9.5 °F 29.93 in NW 6.0 mph 14.0 mph 71% 0.00 in
10:59 17.1 °F 9.6 °F 29.92 in NNW 3.0 mph 13.0 mph 72% 0.00 in
11:04 17.5 °F 10.0 °F 29.92 in NW 3.0 mph 9.0 mph 72% 0.00 in
11:14 17.9 °F 10.7 °F 29.92 in NW 5.0 mph 10.0 mph 73% 0.00 in
11:19 18.0 °F 10.5 °F 29.92 in North 4.0 mph 11.0 mph 72% 0.00 in
11:24 17.5 °F 10.6 °F 29.92 in NNW 4.0 mph 11.0 mph 74% 0.00 in
11:39 17.3 °F 10.4 °F 29.91 in NW 5.0 mph 10.0 mph 74% 0.00 in
11:40 17.3 °F 10.4 °F 29.91 in NW 5.0 mph 10.0 mph 74% 0.00 in
11:49 16.6 °F 10.1 °F 29.91 in NNW 5.0 mph 13.0 mph 75% 0.00 in
11:54 16.3 °F 9.8 °F 29.91 in WNW 3.0 mph 9.0 mph 75% 0.00 in
11:59 17.0 °F 10.7 °F 29.91 in NW 6.0 mph 8.0 mph 76% 0.00 in
12:04 17.6 °F 10.4 °F 29.90 in NW 12.0 mph 12.0 mph 73% 0.00 in
12:09 16.7 °F 8.9 °F 29.91 in North 6.0 mph 12.0 mph 71% 0.00 in
12:14 16.3 °F 8.2 °F 29.91 in NNW 6.0 mph 12.0 mph 70% 0.00 in
12:19 16.3 °F 8.5 °F 29.90 in NW 7.0 mph 7.0 mph 71% 0.00 in
12:24 16.0 °F 8.3 °F 29.90 in NW 4.0 mph 10.0 mph 71% 0.00 in
12:29 15.9 °F 8.2 °F 29.90 in NW 5.0 mph 10.0 mph 71% 0.00 in
12:34 15.9 °F 8.2 °F 29.89 in NW 6.0 mph 10.0 mph 71% 0.00 in
12:39 15.9 °F 8.5 °F 29.89 in West 6.0 mph 9.0 mph 72% 0.00 in
12:44 15.9 °F 8.8 °F 29.89 in North 4.0 mph 11.0 mph 73% 0.00 in
12:49 15.9 °F 8.5 °F 29.89 in WNW 6.0 mph 14.0 mph 72% 0.00 in
12:54 16.1 °F 9.0 °F 29.89 in WNW 6.0 mph 14.0 mph 73% 0.00 in
13:04 15.9 °F 8.8 °F 29.88 in WNW 5.0 mph 11.0 mph 73% 0.00 in
13:09 15.5 °F 8.4 °F 29.88 in WNW 6.0 mph 14.0 mph 73% 0.00 in
13:14 15.3 °F 8.5 °F 29.88 in WNW 7.0 mph 14.0 mph 74% 0.00 in
13:19 15.2 °F 8.7 °F 29.87 in WNW 6.0 mph 14.0 mph 75% 0.00 in
13:24 15.4 °F 8.9 °F 29.87 in WNW 5.0 mph 11.0 mph 75% 0.00 in
13:29 15.3 °F 8.8 °F 29.87 in West 10.0 mph 11.0 mph 75% 0.00 in
13:34 15.2 °F 8.7 °F 29.87 in NW 6.0 mph 15.0 mph 75% 0.00 in
13:39 15.8 °F 8.7 °F 29.87 in WNW 8.0 mph 15.0 mph 73% 0.00 in
13:44 16.0 °F 8.6 °F 29.87 in WNW 8.0 mph 16.0 mph 72% 0.00 in
13:49 15.8 °F 8.1 °F 29.87 in WNW 9.0 mph 16.0 mph 71% 0.00 in
13:54 15.1 °F 8.0 °F 29.87 in WNW 9.0 mph 16.0 mph 73% 0.00 in
13:59 15.0 °F 8.2 °F 29.87 in WNW 7.0 mph 14.0 mph 74% 0.00 in
14:04 14.9 °F 8.4 °F 29.87 in WNW 7.0 mph 12.0 mph 75% 0.00 in
14:09 14.5 °F 8.0 °F 29.88 in NW 5.0 mph 14.0 mph 75% 0.00 in
14:14 14.4 °F 7.9 °F 29.88 in NW 6.0 mph 14.0 mph 75% 0.00 in
14:19 14.4 °F 7.9 °F 29.88 in NW 6.0 mph 11.0 mph 75% 0.00 in
14:24 14.2 °F 7.7 °F 29.88 in NW 6.0 mph 12.0 mph 75% 0.00 in
14:29 13.6 °F 6.8 °F 29.88 in NNW 7.0 mph 12.0 mph 74% 0.00 in
14:34 13.4 °F 6.7 °F 29.88 in NW 6.0 mph 12.0 mph 74% 0.00 in
14:39 13.4 °F 7.0 °F 29.88 in West 8.0 mph 13.0 mph 75% 0.00 in
14:44 13.3 °F 6.9 °F 29.88 in NW 6.0 mph 13.0 mph 75% 0.00 in
14:49 13.3 °F 6.9 °F 29.88 in WNW 6.0 mph 13.0 mph 75% 0.00 in
14:54 13.3 °F 7.1 °F 29.88 in WNW 6.0 mph 13.0 mph 76% 0.00 in
14:59 13.2 °F 7.3 °F 29.88 in WNW 7.0 mph 12.0 mph 77% 0.00 in
15:04 13.3 °F 7.7 °F 29.88 in WNW 11.0 mph 15.0 mph 78% 0.00 in
15:09 13.1 °F 7.8 °F 29.88 in WNW 7.0 mph 15.0 mph 79% 0.00 in
15:14 13.0 °F 8.0 °F 29.88 in WNW 7.0 mph 13.0 mph 80% 0.00 in
15:19 13.1 °F 8.4 °F 29.88 in WNW 7.0 mph 11.0 mph 81% 0.00 in
15:20 13.1 °F 8.4 °F 29.88 in WNW 5.0 mph 11.0 mph 81% 0.00 in
15:29 12.5 °F 7.5 °F 29.88 in NW 6.0 mph 15.0 mph 80% 0.00 in
15:34 12.4 °F 7.7 °F 29.88 in NW 6.0 mph 15.0 mph 81% 0.00 in
15:39 12.2 °F 7.2 °F 29.88 in West 5.0 mph 11.0 mph 80% 0.00 in
15:49 12.3 °F 7.3 °F 29.88 in WNW 4.0 mph 7.0 mph 80% 0.00 in
15:54 12.3 °F 7.3 °F 29.88 in WNW 4.0 mph 12.0 mph 80% 0.00 in
16:10 12.4 °F 7.7 °F 29.88 in WNW 5.0 mph 12.0 mph 81% 0.00 in
16:44 11.2 °F 6.0 °F 29.89 in WSW 9.0 mph 13.0 mph 79% 0.00 in
16:49 10.9 °F 5.4 °F 29.90 in WNW 7.0 mph 16.0 mph 78% 0.00 in
16:59 10.4 °F 4.6 °F 29.90 in WNW 7.0 mph 14.0 mph 77% 0.00 in
17:09 10.3 °F 4.2 °F 29.90 in WNW 7.0 mph 14.0 mph 76% 0.00 in
17:14 10.2 °F 4.1 °F 29.90 in WNW 7.0 mph 14.0 mph 76% 0.00 in
17:24 10.1 °F 3.8 °F 29.90 in WNW 3.0 mph 14.0 mph 75% 0.00 in
17:29 9.9 °F 3.6 °F 29.90 in WNW 6.0 mph 14.0 mph 75% 0.00 in
17:39 9.9 °F 3.6 °F 29.90 in West 8.0 mph 15.0 mph 75% 0.00 in
17:44 9.9 °F 3.6 °F 29.90 in West 8.0 mph 15.0 mph 75% 0.00 in
17:49 9.8 °F 3.5 °F 29.90 in WNW 9.0 mph 15.0 mph 75% 0.00 in
17:54 9.6 °F 3.3 °F 29.90 in WSW 8.0 mph 16.0 mph 75% 0.00 in
17:59 9.5 °F 3.2 °F 29.91 in WNW 9.0 mph 16.0 mph 75% 0.00 in
18:04 9.5 °F 3.2 °F 29.91 in West 9.0 mph 18.0 mph 75% 0.00 in
18:09 9.4 °F 2.8 °F 29.91 in NNW 6.0 mph 13.0 mph 74% 0.00 in
18:14 9.3 °F 2.7 °F 29.91 in WNW 8.0 mph 15.0 mph 74% 0.00 in
18:19 9.2 °F 2.9 °F 29.91 in NW 9.0 mph 15.0 mph 75% 0.00 in
18:24 9.2 °F 2.9 °F 29.91 in WNW 6.0 mph 16.0 mph 75% 0.00 in
18:29 9.1 °F 2.8 °F 29.91 in WNW 8.0 mph 16.0 mph 75% 0.00 in
18:34 9.0 °F 2.7 °F 29.91 in WNW 10.0 mph 14.0 mph 75% 0.00 in
18:39 8.9 °F 2.6 °F 29.91 in WNW 10.0 mph 15.0 mph 75% 0.00 in
18:44 8.7 °F 2.4 °F 29.91 in NW 10.0 mph 18.0 mph 75% 0.00 in
18:49 8.6 °F 2.3 °F 29.91 in West 8.0 mph 20.0 mph 75% 0.00 in
18:54 8.5 °F 2.2 °F 29.91 in West 8.0 mph 20.0 mph 75% 0.00 in
18:59 8.3 °F 2.0 °F 29.91 in WNW 9.0 mph 16.0 mph 75% 0.00 in
19:04 8.1 °F 2.1 °F 29.91 in WNW 9.0 mph 16.0 mph 76% 0.00 in
19:09 8.1 °F 2.4 °F 29.91 in WNW 8.0 mph 15.0 mph 77% 0.00 in
19:19 7.8 °F 2.4 °F 29.92 in WNW 7.0 mph 15.0 mph 78% 0.00 in
19:24 7.7 °F 2.3 °F 29.92 in WNW 6.0 mph 15.0 mph 78% 0.00 in
19:29 7.6 °F 2.2 °F 29.92 in WNW 8.0 mph 15.0 mph 78% 0.00 in
19:34 7.5 °F 2.3 °F 29.92 in WNW 8.0 mph 14.0 mph 79% 0.00 in
19:39 7.6 °F 2.4 °F 29.92 in NW 6.0 mph 13.0 mph 79% 0.00 in
19:44 7.7 °F 2.5 °F 29.92 in West 6.0 mph 10.0 mph 79% 0.00 in
19:49 7.7 °F 2.8 °F 29.92 in WNW 5.0 mph 12.0 mph 80% 0.00 in
19:54 7.7 °F 2.8 °F 29.92 in WNW 7.0 mph 12.0 mph 80% 0.00 in
20:04 7.7 °F 3.1 °F 29.92 in WNW 6.0 mph 16.0 mph 81% 0.00 in
20:09 7.8 °F 3.2 °F 29.92 in WNW 5.0 mph 13.0 mph 81% 0.00 in
20:14 7.8 °F 3.2 °F 29.92 in WNW 5.0 mph 13.0 mph 81% 0.00 in
20:19 7.8 °F 3.2 °F 29.92 in WNW 5.0 mph 12.0 mph 81% 0.00 in
20:24 7.8 °F 3.2 °F 29.92 in WNW 7.0 mph 13.0 mph 81% 0.00 in
20:34 7.7 °F 3.1 °F 29.92 in WNW 7.0 mph 13.0 mph 81% 0.00 in
20:44 7.8 °F 3.2 °F 29.92 in WNW 5.0 mph 12.0 mph 81% 0.00 in
20:49 7.8 °F 3.4 °F 29.93 in NW 2.0 mph 8.0 mph 82% 0.00 in
20:59 7.7 °F 3.1 °F 29.93 in North 6.0 mph 12.0 mph 81% 0.00 in
21:04 7.1 °F 2.5 °F 29.93 in NW 4.0 mph 14.0 mph 81% 0.00 in
21:09 6.7 °F 2.1 °F 29.93 in NNW 6.0 mph 14.0 mph 81% 0.00 in
21:19 6.3 °F 1.7 °F 29.93 in NW 6.0 mph 16.0 mph 81% 0.00 in
21:24 6.2 °F 1.6 °F 29.93 in NW 6.0 mph 15.0 mph 81% 0.00 in
21:29 6.1 °F 1.5 °F 29.93 in NW 5.0 mph 11.0 mph 81% 0.00 in
21:34 6.2 °F 1.6 °F 29.94 in NW 4.0 mph 13.0 mph 81% 0.00 in
21:44 6.0 °F 1.4 °F 29.94 in NNW 5.0 mph 12.0 mph 81% 0.00 in
21:54 5.8 °F 1.2 °F 29.94 in NNW 7.0 mph 14.0 mph 81% 0.00 in
21:59 5.8 °F 1.2 °F 29.94 in WNW 10.0 mph 15.0 mph 81% 0.00 in
22:04 5.7 °F 1.1 °F 29.94 in NW 4.0 mph 16.0 mph 81% 0.00 in
22:09 5.6 °F 1.0 °F 29.94 in NW 8.0 mph 16.0 mph 81% 0.00 in
22:19 5.2 °F 0.6 °F 29.94 in North 6.0 mph 17.0 mph 81% 0.00 in
22:24 5.1 °F 0.5 °F 29.95 in NW 8.0 mph 17.0 mph 81% 0.00 in
22:29 5.0 °F 0.4 °F 29.95 in NW 8.0 mph 14.0 mph 81% 0.00 in
22:34 4.8 °F 0.2 °F 29.95 in NW 7.0 mph 18.0 mph 81% 0.00 in
22:39 4.6 °F 0.1 °F 29.95 in NW 7.0 mph 18.0 mph 81% 0.00 in
22:44 4.4 °F -0.1 °F 29.94 in NW 8.0 mph 17.0 mph 81% 0.00 in
22:59 4.0 °F -0.8 °F 29.94 in NW 7.0 mph 18.0 mph 80% 0.00 in
23:04 4.0 °F -0.8 °F 29.94 in NW 9.0 mph 16.0 mph 80% 0.00 in
23:09 3.9 °F -0.9 °F 29.95 in NW 8.0 mph 18.0 mph 80% 0.00 in
23:14 3.9 °F -0.9 °F 29.95 in NW 7.0 mph 19.0 mph 80% 0.00 in
23:19 3.9 °F -0.9 °F 29.95 in WNW 10.0 mph 19.0 mph 80% 0.00 in
23:24 3.9 °F -0.9 °F 29.95 in North 5.0 mph 17.0 mph 80% 0.00 in
23:29 3.9 °F -0.9 °F 29.95 in West 11.0 mph 16.0 mph 80% 0.00 in
23:34 3.8 °F -1.0 °F 29.95 in NW 9.0 mph 15.0 mph 80% 0.00 in
23:39 3.7 °F -1.1 °F 29.95 in NW 9.0 mph 18.0 mph 80% 0.00 in
23:44 3.7 °F -1.4 °F 29.94 in WNW 8.0 mph 18.0 mph 79% 0.00 in
23:49 3.5 °F -1.6 °F 29.94 in NW 8.0 mph 17.0 mph 79% 0.00 in
23:54 3.5 °F -1.6 °F 29.94 in NW 8.0 mph 15.0 mph 79% 0.00 in
Buffalo, New York, USA
Compliments of Weather Underground - 2.25 mb